Regional Weather Roundup
Issued by NWS State College, PA

Home | Current Version | Previous Version | Text Only | Print | Product List | Glossary Off
Versions: 1 2 3 4 5 6 7 8 9 10 11 12 13 14 15 16 17 18 19 20 21 22 23 24 25 26 27 28 29 30 31 32 33 34 35 36 37 38 39 40 41 42 43 44 45 46 47 48 49 50

627
ASUS41 KCTP 201203
RWRCTP

REGIONAL WEATHER ROUNDUP
NATIONAL WEATHER SERVICE STATE COLLEGE PA
800 AM EDT FRI APR 20 2018

Note: "fair" indicates few or no clouds below 12,000 feet with no
significant weather and/or obstructions to visibility.

* = STATION THAT DOES NOT REPORT PRECIPITATION /E.G. RAIN...SNOW...ETC/
    THUNDER OR FOG.

PAZ002>004-007>009-013>016-020>023-029>032-201300-
WESTERN PENNSYLVANIA

CITY           SKY/WX    TMP DP  RH WIND       PRES   REMARKS
ERIE           FAIR      36  27  69 NW8       30.36R
MEADVILLE      FAIR      30  27  88 NW5       30.32R
FRANKLIN*      FAIR      30  26  85 NW5       30.31R
NEW CASTLE     FAIR      31  25  78 W3        30.37R
BEAVER COUNTY  SUNNY     32  23  69 W5        30.35R
BUTLER*        FAIR      31  24  75 W5        30.35R
PITTSBURGH INT FAIR      32  23  69 W6        30.35R
PITTSBURGH     FAIR      32  22  66 NW6       30.34R
INDIANA*       SUNNY     32  25  74 W5        30.35R
LATROBE        SUNNY     32  25  74 W9        30.36R
WASHINGTON CO* FAIR      32  22  66 W9        30.39
$$

PAZ004>006-010>012-017>019-024>028-033>037-041-042-045-046-049>053-201300-
CENTRAL PENNSYLVANIA

CITY           SKY/WX    TMP DP  RH WIND       PRES   REMARKS
BRADFORD       PTSUNNY   27  19  72 NW9       30.23R
DUBOIS         FAIR      28  23  81 VRB7      30.26R
CLEARFIELD     FAIR      31  22  69 W10       30.26R
JOHNSTOWN      FAIR      28  22  78 W13       30.24R
ALTOONA        FAIR      34  21  59 NW16G22   30.26R
STATE COLLEGE  MOSUNNY   32  21  64 W12       30.25R
WILLIAMSPORT   CLOUDY    36  24  62 W12       30.23R
SELINSGROVE    CLOUDY    35  27  72 CALM      30.25R
FT INDIANTOWN  PTSUNNY   36  26  65 CALM      30.22R
CAPITAL CITY   PTSUNNY   39  23  52 W10G17    30.25R
HARRISBURG     PTSUNNY   39  23  52 NW15      30.24R
YORK           PTSUNNY   35  22  58 NW6       30.25R
$$

PAZ038>040-043-044-047-048-054-055-060>062-067>071-201300-
EASTERN PENNSYLVANIA

CITY           SKY/WX    TMP DP  RH WIND       PRES   REMARKS
SCRANTON       CLOUDY    32  22  66 N16       30.18R
MOUNT POCONO   CLOUDY    27  19  72 NW17G28   30.11R WCI  14
ALLENTOWN      FAIR      38  20  48 NW15G24   30.19R
QUAKERTOWN*    CLOUDY    36  21  55 NW9G17    30.20R
READING        FAIR      38  25  59 NW9       30.21R
LANCASTER      FAIR      38  26  62 NW10      30.23R
COATESVILLE    FAIR      36  25  64 NW13      30.21S
POTTSTOWN      FAIR      35  20  54 NW9G16    30.22R
BLUE BELL      CLOUDY    36  23  60 NW3       30.22R
DOYLESTOWN     CLOUDY    36  20  52 NW9G18    30.19R
WILLOW GROVE   NOT AVBL
NORTH PHILA    PTSUNNY   40  21  46 NW18G24   30.22R
PHILADELPHIA   FAIR      37  20  50 NW15      30.23R
$$




USA.gov is the U.S. government's official web portal to all federal, state and local government web resources and services.